Flag for U.S.A. Weather past 2 weeks in Avalon (Santa Catalina Island), California, U.S.A.

51 °F


Feels Like: 51 °F
Forecast: 53 / 62 °F
Wind: 3 mph from Northwest

Location: Catalina Airport

Current Time: Nov 28, 2015 at 8:24:24 PM

Latest Report: Nov 28, 2015 at 7:51 PM

Visibility: 10 mi

Pressure: 30.06 "Hg

Humidity: 63%

Dew point: 39 °F

Location of Avalon (Santa Catalina Island)Location

Historic Weather in Avalon (Santa Catalina Island) — Graph


Avalon (Santa Catalina Island) temperature yesterday

Maximum temperature yesterday: 53 °F (at 10:51 AM)
Minimum temperature yesterday: 44 °F (at 3:56 AM)
Average temperature yesterday: 48 °F

Past Weeks' High & Low Weather Summary

High79 °F (Nov 20, 10:51 AM)100% (Nov 24, 7:57 AM)30.19 "Hg (Nov 24, 7:57 AM)
Low44 °F (Nov 27, 3:56 AM)9% (Nov 14, 12:51 AM)29.86 "Hg (Nov 20, 2:51 PM)
Average60 °F43%29.96 "Hg
* Reported Nov 13 5:51 PM — Nov 28 5:51 PM, Avalon (Santa Catalina Island), Weather by CustomWeather, © 2015

Note: Actual official high and low records may vary slightly from our data, if they occured in-between our weather recording intervals... More about our weather records


Avalon (Santa Catalina Island) weather history for previous 24 hours

Time TempWeatherWind HumidityBarometerVisibility
5:51 PM
Sat, Nov 28
50 °FClear.6 mph71%30.05 "Hg10 mi
4:51 PM51 °FClear.8 mph66%30.03 "Hg10 mi
3:51 PM53 °FSunny.3 mph41%30.03 "Hg10 mi
2:51 PM53 °FSunny.3 mph59%30.03 "Hg10 mi
1:51 PM55 °FSunny.5 mph53%30.03 "Hg10 mi
12:51 PM54 °FSunny.6 mph64%30.04 "Hg10 mi
11:51 AM51 °FSunny.5 mph69%30.06 "Hg10 mi
10:51 AM52 °FSunny.7 mph66%30.09 "Hg10 mi
9:51 AM53 °FPartly sunny.7 mph66%30.09 "Hg10 mi
8:51 AM50 °FOvercast.5 mph77%30.10 "Hg10 mi
7:51 AM51 °FOvercast.7 mph74%30.08 "Hg10 mi
6:51 AM49 °FOvercast.6 mph71%30.07 "Hg10 mi
5:51 AM48 °FOvercast.5 mph71%30.06 "Hg10 mi
4:51 AM48 °FMostly cloudy.No wind74%30.05 "Hg10 mi
3:51 AM48 °FMostly cloudy.6 mph77%30.04 "Hg10 mi
2:51 AM48 °FPassing clouds.7 mph77%30.05 "Hg10 mi
1:51 AM49 °FPassing clouds.6 mph69%30.05 "Hg10 mi
12:51 AM49 °FClear.6 mph66%30.05 "Hg10 mi
11:51 PM
Fri, Nov 27
49 °FClear.6 mph64%30.05 "Hg10 mi
10:51 PM49 °FClear.5 mph64%30.05 "Hg10 mi
9:51 PM49 °FClear.5 mph57%30.05 "Hg10 mi
8:51 PM48 °FClear.6 mph63%30.06 "Hg10 mi
Weather by CustomWeather, © 2015

See weather overviewHow to use our weather pages